User: anonymous   Login
Location: Caltech
(34.1382°N, 118.1253°W)
Time: 15:42:50
(UTC-08:00)
Language:

Oscar 16 - Orbit

View from above orbital plane
View from above orbital plane
View from above satellite
View from above satellite

Ground track
Ground track

The orbit data is extracted from the following two-line orbital elements,

1 20439U 90005D   16044.51986443  .00000113  00000-0  57774-4 0  9996
2 20439  98.5643 342.4429 0011074 162.0068 250.5017 14.32609609361290
Epoch (UTC): 13 February 2016 12:28:36
Eccentricity: 0.0011074
inclination: 98.5643°
perigee height: 775 km
apogee height: 791 km
right ascension of ascending node: 342.4429°
argument of perigee: 162.0068°
revolutions per day: 14.32609609
mean anomaly at epoch: 250.5017°
orbit number at epoch: 36129

The dashed part of the orbit path shows where the satellite is in the earth's shadow,  

DLR